Regional Weather Roundup
Issued by NWS

Home | Current Version | Previous Version | Text Only | Print | Product List | Glossary On
Versions: 1 2 3 4 5 6 7 8 9 10 11 12 13 14 15 16 17 18 19 20 21 22 23 24 25 26 27 28 29 30 31 32 33 34 35 36 37 38 39 40 41 42 43 44 45 46 47 48 49 50
382
ASUS45 KABQ 250110
RWRNM
NEW MEXICO REGIONAL WEATHER ROUNDUP
NATIONAL WEATHER SERVICE ALBUQUERQUE NM
700 PM MDT SUN JUL 24 2016

NOTE: "FAIR" MEANS FEW OR NO CLOUDS BELOW 12,000 FEET AGL WITH NO
       SIGNIFICANT WEATHER OR OBSTRUCTIONS TO VISION.

      THIS PRODUCT IS RELEASED AS TWO VERSIONS.  ONE VERSION NEAR
      THE TOP OF THE HOUR CONTAINING PRELIMINARY DATA FROM ALBUQUERQUE
      AND OTHER STATIONS.  A FINAL VERSION WITH ADDITIONAL DATA IS
      ISSUED ABOUT 10 MINUTES AFTER THE HOUR.

NMZ501-503-504-510>518-250200-
NORTHWEST PLATEAU/NORTHCENTRAL MOUNTAINS

CITY           SKY/WX    TMP DP  RH WIND       PRES   REMARKS
FARMINGTON     FAIR      90  38  16 N16       30.09S
LOS ALAMOS     FAIR      77  43  29 S12G23    30.32R
SANTA FE       FAIR      77  48  35 SE17      30.24R
TAOS           FAIR      77  39  25 E12G17    30.29R
ANGEL FIRE     FAIR      66  52  59 N10       30.42S

$$
NMZ402-403-502-505>509-250200-
WESTCENTRAL MOUNTAINS/SOUTHWEST MOUNTAINS

CITY           SKY/WX    TMP DP  RH WIND       PRES   REMARKS
GALLUP         FAIR      84  42  22 S12       30.21R
GRANTS         PTSUNNY   81  44  26 SW5       30.25S
SILVER CITY    FAIR      92  46  20 W15       30.08S

$$
NMZ407-409-411-412-250200-
SOUTHERN DESERTS

CITY           SKY/WX    TMP DP  RH WIND       PRES   REMARKS
LORDSBURG      FAIR      97  48  19 NW17      29.96S
DEMING         FAIR      98  46  17 NW13      29.96S
LAS CRUCES     FAIR      97  41  14 NE17G26   29.97R
HOLLOMAN AFB   FAIR      99  46  16 NE13      29.92S HX  95
ALAMOGORDO     FAIR      88  57  35 NE9       29.95S
T OR C         FAIR      88  47  24 N21G33    30.04S

$$
NMZ519>523-250200-
CENTRAL VALLEYS/CENTRAL HIGHLANDS

CITY           SKY/WX    TMP DP  RH WIND       PRES   REMARKS
ALBUQUERQUE    PTSUNNY   77  56  48 N25G36    30.18R
DOUBLE EAGLE   PTSUNNY   68  59  73 NW14      30.25R THUNDER
MORIARTY ARPT  CLOUDY    70  53  55 NE10      30.22R
CLINES CORNERS FAIR      65  53  65 NE15      30.31F
BELEN          PTSUNNY   87  43  21 NW21G26   30.12R
SOCORRO        PTSUNNY   86  47  25 SW20G26   30.11R

$$
NMZ524>526-539-540-250200-
SOUTHCENTRAL MOUNTAINS

CITY           SKY/WX    TMP DP  RH WIND       PRES   REMARKS
RUIDOSO          N/A     84  39  20 SE8       30.25S

$$
NMZ527>531-250200-
NORTHEAST HIGHLANDS/NORTHEAST PLAINS

CITY           SKY/WX    TMP DP  RH WIND       PRES   REMARKS
LAS VEGAS      LGT RAIN  65  53  65 S13       30.32R
RATON          FAIR      66  58  75 N12       30.25F
CLAYTON        TSTM      67  62  84 W13       30.19S

$$
NMZ532>537-250200-
EASTCENTRAL PLAINS

CITY           SKY/WX    TMP DP  RH WIND       PRES   REMARKS
TUCUMCARI      PTSUNNY   85  53  33 N35G43    30.07R
CANNON AFB     FAIR      92  49  22 SE10      30.05R
CLOVIS AIRPORT FAIR      91  50  24 SE13      30.06R

$$
NMZ028-029-538-250200-
SOUTHEAST PLAINS

CITY           SKY/WX    TMP DP  RH WIND       PRES   REMARKS
ROSWELL        FAIR     100  44  14 SE12      29.95S HX  96
ARTESIA        FAIR      99  50  19 E15       29.93S HX  95
CARLSBAD       PTSUNNY   99  48  17 E9        29.90S HX  95
HOBBS          FAIR      93  48  21 SE8G17    29.99S


$$




USA.gov is the U.S. government's official web portal to all federal, state and local government web resources and services.